Content
SEND FEEDBACK

Daily
Averages
Monthly
Summary
United States of America

SOUTH LAKE TAHOE - AIRPORT, CALIFORNIA


Home > North America > United States > California
Elevation: 6250 feet     Latitude: 38 54N     Longitude: 120 00W

WEATHER
 
SELECT A DAY
Number of Records: 176,518;   Date Range: 1/1/95 - 9/30/14
 
SHARE

PRINT THIS DATA

[ ← Previous Day ]
WEATHER ALMANAC - SEPTEMBER 1, 2013
[ Next Day → ]
[ °C ]   °F
Weather ElementAverageHighLow
Temperature65.5 °F77 °F (3:53 pm)54 °F (6:53 am)
Dewpoint41.8 °F46.9 °F (9:53 pm)35.1 °F (5:53 am)
Humidity43.3 %58 % (10:53 pm)29 % (12:53 pm)
Barometer30.00 in30.13 in (4:26 pm)29.94 in (3:53 pm)
Wind Speed3.6 mph15 mph (3:53 pm)
Wind Gust21.9 mph (3:53 pm)
Weather ElementAverage
Visibility8.7 mi
Wind DirectionENE (78.8 °)

Weather ElementTotal
Precipitation---
Cooling Degree Days0.5 (Base 65)
Growing Degree Days15.5 (Base 50)
Averaged from 24 records on September 1, 2013
WEATHER CONDITIONS BREAKOUT
WIND DIRECTION BREAKOUT
WEATHER BY HOUR - SEPTEMBER 1, 2013
[ °C ]   °F
Local TimeTemperatureDewpointHumidityBarometerVisibilityWind DirectionWind SpeedGust SpeedPrecipitationEventsConditions
1:53 AM55.9 °F39.0 °F53 %30.01 in10.0 miCalmScattered Clouds
2:53 AM55.0 °F39.0 °F55 %30.00 in10.0 miCalmMostly Cloudy
3:53 AM57.0 °F37.0 °F47 %29.99 in10.0 miCalmMostly Cloudy
4:53 AM55.9 °F37.9 °F51 %29.99 in10.0 miCalmPartly Cloudy
5:53 AM55.0 °F35.1 °F47 %30.00 in10.0 miCalmMostly Cloudy
6:53 AM54.0 °F35.1 °F49 %30.02 in10.0 miCalmMostly Cloudy
7:53 AM55.9 °F37.0 °F49 %30.02 in10.0 miCalmOvercast
8:53 AM61.0 °F39.0 °F44 %30.01 in10.0 miCalmOvercast
9:53 AM69.1 °F41.0 °F36 %30.01 in10.0 miNE (50°)3.5 mphOvercast
10:53 AM70.0 °F44.1 °F39 %30.01 in10.0 miNNE (20°)5.8 mphOvercast
11:53 AM71.1 °F41.0 °F34 %30.01 in10.0 miCalmOvercast
12:53 PM73.9 °F39.9 °F29 %29.99 in10.0 miVariable5.8 mphOvercast
1:53 PM75.9 °F41.0 °F29 %29.97 in6.0 miVariable3.5 mphHaze
2:53 PM73.0 °F42.1 °F33 %29.97 in5.0 miNorth (360°)3.5 mphHaze
3:53 PM77.0 °F45.0 °F32 %29.94 in4.0 miSSW (200°)15.0 mph21.9 mphHaze
4:26 PM75.2 °F44.6 °F34 %30.13 in5.0 miVariable5.8 mphHaze
4:53 PM75.0 °F44.1 °F33 %29.95 in7.0 miVariable5.8 mph17.3 mphClear
5:53 PM73.0 °F44.1 °F35 %29.96 in8.0 miSSW (210°)8.1 mphScattered Clouds
6:53 PM71.1 °F45.0 °F39 %29.97 in9.0 miSSW (210°)6.9 mphClear
7:53 PM66.9 °F46.0 °F47 %29.99 in10.0 miSouth (190°)9.2 mphClear
8:53 PM64.0 °F46.0 °F52 %30.00 in10.0 miSW (220°)4.6 mphClear
9:53 PM63.0 °F46.9 °F56 %29.99 in10.0 miSW (220°)5.8 mphPartly Cloudy
10:53 PM62.1 °F46.9 °F58 %29.99 in10.0 miSSW (210°)3.5 mphClear
11:53 PM62.1 °F46.9 °F58 %29.97 in5.0 miCalmHaze
Hourly data recorded from KTVL, located miles away from South Lake Tahoe - Airport, California







STORIES FROM OUR PARTNERS